Location: Bacharowice
(49.9333°N, 19.5833°E)
Time: 06:52:52
(UTC+00:00)

Envisat - Pass Details

Date: 09 October 2022
Orbit: 763 x 765 km, 98.2° (Epoch: 09 December)

Event Time Altitude Azimuth Distance (km) Brightness Sun altitude
Rises 01:53:22 0° 26° (NNE) 3,246 7.0 -29.0°
Reaches altitude 10° 01:56:19 10° 43° (NE) 2,314 6.3 -28.6°
Maximum altitude 02:00:00 20° 90° (E) 1,726 5.4 -28.0°
Drops below altitude 10° 02:03:40 10° 136° (SE) 2,300 5.7 -27.5°
Sets 02:06:34 0° 153° (SSE) 3,220 6.3 -27.1°
